RH
52 63 73 71 68 73 69 67 67 65 70 66 54 39 31 43 51 53 55 52 58 65 68 72 72 75 80 82 77 72 72 67 61 60 56 51 56 57 53 50 46 53 63 65 66 64 66 66 57 42 35 37 31 37 59 61 36 29 39 19 15 24
50 55 71 78 70 71 69 66 68 65 68 74 71 53 47 60 62 61 63 63 70 75 74 74 78 79 80 87 80 73 74 68 64 62 57 56 58 58 57 55 52 60 69 74 81 81 75 71 64 51 42 32 30 64 82 49 29 37 31 19 26 17
47 47 64 83 80 78 74 65 66 74 77 78 82 71 66 77 74 71 71 70 77 82 77 76 79 79 83 89 80 72 73 69 68 65 59 59 62 63 65 65 63 63 73 84 85 83 82 79 70 59 51 43 50 84 84 46 43 54 37 24 23 7
43 39 52 75 81 86 83 68 65 78 86 83 85 75 68 83 82 76 77 68 74 79 80 89 84 77 83 86 84 76 72 72 71 68 63 63 66 67 71 75 73 71 79 85 80 77 80 84 80 70 65 63 75 89 79 61 64 74 59 34 19 4
44 41 45 61 69 82 89 79 75 80 88 88 87 77 65 77 81 79 81 70 73 80 87 101 88 77 85 86 89 81 73 75 73 72 66 68 72 69 77 82 77 79 87 84 77 78 80 86 88 86 84 79 84 86 78 76 80 88 75 44 21 4
38 44 45 53 55 73 94 94 92 88 89 88 85 85 73 71 77 78 82 80 86 90 95 106 93 89 94 85 85 82 77 77 77 79 68 73 82 74 83 90 85 85 87 85 82 83 85 90 90 90 91 84 85 85 82 83 82 86 81 61 28 -0
27 36 44 53 51 63 90 101 101 96 94 92 87 92 84 72 74 72 74 85 97 99 100 105 97 98 97 80 81 85 83 86 88 85 71 76 85 78 86 90 88 91 86 84 85 83 83 89 91 90 90 86 86 85 83 84 84 84 80 79 50 6
22 27 35 48 52 55 72 87 99 101 96 95 93 95 89 79 77 71 67 76 94 102 100 103 98 93 91 84 86 89 86 88 93 90 77 78 84 81 85 88 86 89 87 84 85 83 78 81 90 92 91 88 87 86 84 84 86 88 80 86 74 25
24 26 29 39 50 54 58 67 82 96 99 99 101 99 94 87 85 81 70 67 80 92 94 100 99 84 80 84 89 94 93 89 89 93 84 76 82 83 80 85 85 84 86 85 85 85 78 77 86 91 92 91 90 88 88 85 83 87 83 85 89 58
25 27 32 37 44 51 56 59 64 76 85 93 100 103 101 94 91 90 84 77 73 74 79 89 95 84 76 79 80 83 89 91 92 92 86 76 77 79 78 81 83 83 84 83 81 83 83 79 80 86 91 90 90 91 91 89 84 84 86 84 92 88
25 27 33 39 38 42 50 56 59 61 64 70 82 94 99 95 92 92 90 88 79 69 70 76 84 85 79 74 69 68 72 82 92 88 84 81 72 69 76 80 83 83 80 79 78 80 87 84 76 78 87 91 91 95 94 92 89 86 87 84 87 96
22 23 27 34 35 37 39 44 49 52 53 54 60 70 78 80 84 89 89 90 87 79 75 73 74 75 73 71 65 64 64 70 85 84 78 81 71 62 69 76 78 78 80 82 80 81 87 85 76 75 81 89 91 95 94 91 91 87 86 84 83 88
20 19 21 23 26 29 30 32 35 39 43 42 44 49 54 57 60 71 82 90 94 90 83 77 76 73 69 69 66 65 66 66 77 81 74 75 72 62 60 64 60 58 69 79 84 89 90 84 77 77 79 85 90 91 89 88 89 89 88 84 80 81
20 20 20 20 20 21 21 23 25 27 32 35 37 39 40 41 42 47 58 71 83 91 90 83 82 81 74 72 71 69 71 73 81 87 79 70 68 64 59 56 48 51 66 76 85 89 87 88 84 80 82 83 86 88 87 89 89 90 92 86 82 84
23 24 23 24 23 23 23 22 24 24 26 30 35 40 41 41 40 39 41 48 60 73 84 88 89 87 81 80 76 70 74 80 91 98 89 73 65 65 64 58 50 62 82 83 83 84 82 90 88 78 81 84 82 85 89 89 87 88 90 86 84 86
25 26 26 25 24 24 24 24 26 27 27 28 31 35 40 44 46 44 41 41 48 58 66 77 91 96 89 85 80 75 75 74 84 98 99 84 71 73 74 68 63 68 85 86 78 80 83 87 83 72 75 84 83 83 87 84 84 86 83 81 82 83
25 26 26 25 25 24 23 23 23 23 26 28 30 32 34 39 45 46 45 43 44 51 59 66 81 94 94 89 86 87 83 73 77 93 101 90 78 83 84 80 77 66 73 84 77 74 81 83 76 68 71 81 84 83 84 82 84 85 80 79 80 81
24 25 26 26 27 26 24 23 23 21 21 22 27 32 34 35 39 42 45 45 42 44 55 63 69 81 93 95 90 92 91 82 81 86 91 89 83 87 89 87 87 77 77 88 81 70 74 79 70 64 72 80 82 83 83 83 84 83 77 77 80 80
25 28 30 30 30 30 27 24 24 23 21 20 21 26 33 37 39 40 40 41 42 41 46 56 66 80 95 97 92 91 90 85 87 89 87 87 85 87 86 82 84 88 88 89 85 73 70 76 69 62 72 78 80 82 85 85 84 83 77 73 77 80
30 33 35 34 34 35 33 28 24 23 22 19 18 20 27 35 42 45 43 39 38 38 40 45 53 66 78 84 83 87 89 86 89 94 94 91 88 87 86 80 78 86 91 89 88 78 70 77 73 66 73 77 78 80 82 86 86 82 79 75 76 81
35 36 38 39 38 37 34 29 24 23 22 19 17 18 21 29 40 47 48 45 41 39 41 43 45 50 56 61 64 72 82 87 91 93 91 92 93 92 89 85 81 83 90 91 91 80 72 77 75 72 78 77 79 81 78 82 83 78 75 75 79 83
39 39 39 40 40 37 33 29 25 23 22 19 15 16 21 25 31 41 47 47 45 44 45 46 49 50 49 50 51 54 61 69 82 90 88 88 94 97 95 93 89 86 87 89 92 85 73 76 74 71 77 76 78 80 78 80 79 76 75 75 82 87
41 40 40 42 41 37 33 29 26 24 23 19 15 15 19 21 27 36 44 51 52 47 45 49 57 59 55 57 55 49 51 50 53 67 80 89 95 97 96 95 91 85 85 90 95 88 76 76 72 65 71 71 71 74 73 81 81 74 76 79 85 88
42 40 40 43 43 39 35 31 27 25 24 20 17 16 19 29 42 46 53 72 76 56 45 52 67 77 79 79 73 62 66 70 59 49 56 75 92 98 95 94 93 86 83 86 90 89 80 78 73 63 64 63 62 65 61 70 80 73 71 78 85 86
43 43 43 45 45 40 35 31 27 25 25 22 20 23 27 35 48 62 76 89 82 62 55 56 60 77 94 97 89 77 74 82 80 64 46 45 63 80 86 88 87 83 84 80 78 84 82 81 79 64 61 60 55 55 51 55 69 73 73 79 81 82
45 45 46 47 45 40 35 31 28 26 25 24 22 27 32 28 31 55 77 79 72 66 64 61 55 64 81 88 88 83 75 72 76 79 68 47 38 49 69 76 66 65 83 85 76 82 81 82 85 72 64 63 55 55 56 53 57 63 69 76 77 77
47 47 48 50 45 40 36 31 28 28 26 25 24 26 32 31 26 37 53 59 67 71 67 66 66 64 68 71 75 79 78 73 66 68 79 76 53 34 45 74 80 74 86 90 80 84 84 81 86 78 70 68 65 67 67 61 58 56 57 65 70 71
48 49 50 51 48 42 37 32 29 29 28 27 26 25 29 34 32 31 36 43 53 64 68 70 67 64 68 73 78 82 80 77 66 55 65 82 79 53 37 64 96 94 91 93 87 86 85 83 88 82 73 73 75 77 74 67 64 59 52 53 59 66
49 51 53 53 50 44 37 33 31 30 30 29 28 26 26 29 34 34 34 36 39 47 57 65 67 64 66 72 83 90 85 81 79 68 60 62 73 76 61 62 85 94 94 96 95 93 89 84 85 82 76 76 78 79 77 70 67 64 57 49 47 55
50 53 55 56 53 45 38 34 31 31 31 30 29 28 26 24 27 30 32 35 39 44 47 50 55 56 60 66 74 82 82 82 87 83 70 56 55 64 63 58 68 77 82 87 88 94 98 89 83 79 77 79 79 80 81 75 70 68 63 55 47 48
51 54 56 58 56 47 39 34 32 32 31 31 30 29 28 26 24 25 28 29 34 45 51 49 45 42 44 52 59 70 79 82 86 84 76 67 61 56 53 55 64 69 71 76 78 83 91 90 87 84 77 75 75 79 83 79 75 72 67 60 54 53
49 53 56 59 57 49 41 35 33 33 32 32 32 30 29 27 27 26 26 27 27 32 40 48 56 54 46 44 45 54 69 79 87 90 85 77 68 60 56 57 67 75 73 74 80 87 89 86 87 89 81 72 70 73 79 81 79 76 72 66 61 59
50 53 57 60 57 51 43 36 33 33 33 33 32 33 32 29 28 28 27 28 28 28 28 32 45 52 51 50 47 44 51 63 77 92 97 91 76 63 59 57 64 76 78 77 82 91 95 91 93 93 81 74 74 71 70 77 83 81 76 75 70 65
53 55 58 61 57 51 44 37 34 33 33 33 33 33 34 32 30 29 29 29 29 30 31 28 29 32 38 47 53 53 52 52 60 76 89 94 87 72 61 56 58 68 76 81 83 87 91 92 97 95 80 76 80 75 70 75 85 86 80 78 74 70
49 54 57 62 57 50 44 37 34 34 32 33 33 34 35 34 32 30 30 31 31 31 31 32 31 29 29 32 40 50 57 56 55 59 68 84 93 88 77 66 59 59 64 73 81 85 86 85 91 93 81 73 67 61 66 76 83 83 81 81 76 73
44 51 55 62 58 49 43 37 34 34 33 33 33 35 36 35 34 32 32 32 33 33 33 33 32 32 31 29 31 36 45 55 59 56 60 77 93 97 94 88 77 66 58 60 68 76 80 79 82 84 80 76 65 50 54 74 84 82 81 84 82 74
41 48 53 59 57 50 43 36 35 35 34 34 35 36 37 37 35 34 34 34 34 34 34 34 33 33 33 32 33 33 36 45 55 60 61 70 84 92 98 101 96 87 74 63 61 65 72 74 72 73 75 83 83 65 53 62 75 83 85 86 83 75
Wind_Speed
7 8 8 8 6 8 12 14 14 13 13 12 10 12 15 16 15 13 13 13 13 14 13 11 11 11 12 13 14 13 14 14 12 12 11 10 8 9 9 9 9 10 10 9 9 8 6 5 5 7 8 9 10 8 7 8 9 7 7 10 10 12
5 6 6 7 6 6 11 14 15 13 14 13 10 11 13 14 13 11 12 13 13 14 13 12 12 11 13 15 15 13 14 16 14 12 12 10 9 8 8 8 9 10 10 9 8 7 5 4 5 6 7 8 8 6 6 8 8 6 8 9 11 14
4 3 3 5 6 5 9 13 15 14 14 14 12 12 12 13 13 11 11 12 12 13 12 12 11 9 12 15 17 15 14 17 16 14 12 11 9 7 8 8 7 7 8 7 6 5 5 4 4 6 8 8 7 6 7 7 7 6 7 9 12 15
3 2 2 3 4 3 8 12 14 15 14 14 14 14 13 13 12 12 12 11 12 13 12 11 10 9 10 12 18 18 15 17 17 15 13 11 9 7 8 8 7 6 6 6 5 5 6 5 5 5 8 7 7 8 8 6 6 5 7 9 11 13
3 2 2 2 1 1 6 12 15 15 14 14 14 14 14 13 12 13 14 12 12 13 12 11 11 11 9 10 16 19 18 19 19 16 13 11 10 9 8 9 9 8 7 7 7 7 7 7 6 6 7 7 7 9 8 7 6 6 7 9 11 13
4 2 2 1 0 1 3 10 14 15 14 13 15 15 15 15 14 15 14 12 12 14 13 11 11 11 10 11 13 19 22 20 18 16 14 13 12 10 10 10 10 10 9 8 8 7 7 7 7 6 6 7 8 8 8 7 7 7 7 8 11 13
4 3 2 0 0 1 1 8 13 16 16 16 16 15 15 16 16 16 16 15 13 12 13 12 12 11 12 11 12 18 21 18 18 17 15 15 13 11 11 11 9 10 9 8 8 7 7 8 8 8 7 8 8 8 8 7 7 7 6 7 9 12
3 3 3 2 2 2 3 5 9 13 17 18 18 15 15 17 17 17 17 17 15 13 14 14 14 14 14 13 12 17 18 17 19 17 15 15 14 11 12 11 9 9 9 8 9 8 7 9 10 10 9 8 8 9 8 8 8 7 6 5 8 12
3 1 2 3 4 4 5 6 5 7 11 16 18 17 16 17 17 18 19 19 18 16 15 16 17 17 16 15 15 17 18 18 18 17 15 15 14 13 11 11 9 8 8 8 8 8 8 10 10 11 10 9 8 9 9 8 8 7 7 6 6 10
4 2 1 2 4 6 6 6 6 4 5 7 12 16 16 17 18 19 20 20 21 20 18 19 19 18 17 17 17 18 19 19 19 18 17 14 14 14 12 11 9 8 9 9 8 9 9 9 10 12 11 10 9 9 8 8 8 7 7 7 6 9
4 4 4 2 3 5 7 8 8 7 6 4 6 11 12 13 18 22 22 21 21 22 21 22 20 17 18 17 16 18 20 19 20 20 16 13 14 14 14 13 11 10 10 10 10 10 9 8 10 12 12 12 10 10 10 8 8 8 7 7 6 8
6 5 4 4 2 3 5 7 9 9 10 9 8 9 9 8 11 17 22 22 21 22 23 24 22 20 20 19 19 21 21 20 20 20 16 14 14 13 14 14 13 11 10 10 10 11 10 8 10 12 13 13 12 12 11 9 9 9 8 8 7 7
8 7 6 4 2 0 2 5 7 9 11 11 11 12 12 11 11 11 15 20 21 20 22 23 24 23 21 20 22 24 23 22 21 21 19 17 15 14 14 15 15 13 12 11 9 10 10 9 12 13 13 14 13 12 12 10 10 9 9 9 8 8
12 11 10 8 7 5 4 3 5 7 9 10 12 13 13 13 13 12 13 16 18 20 23 24 23 24 24 22 22 24 25 23 20 21 22 20 17 16 15 16 17 15 14 12 9 9 9 10 13 14 14 15 14 13 12 11 10 10 9 9 10 9
14 14 14 13 13 11 10 8 7 7 7 8 10 12 13 12 11 12 13 15 17 19 22 25 25 24 25 25 24 24 25 23 19 19 22 22 20 19 18 18 19 16 12 10 10 10 10 11 13 14 14 15 15 14 12 12 12 11 10 10 10 10
12 14 14 15 15 15 14 12 11 10 9 7 8 10 12 12 10 9 10 13 16 18 19 23 27 27 25 25 27 27 26 26 23 20 21 24 22 19 20 19 19 18 13 11 11 11 12 12 12 13 14 15 16 15 13 13 14 12 11 11 11 11
9 11 12 13 15 16 15 14 13 12 11 10 9 9 11 12 10 9 9 10 12 16 19 20 24 28 29 27 28 27 27 29 29 26 24 27 26 20 19 20 20 21 18 13 11 12 13 13 12 13 14 15 16 16 15 15 15 13 12 13 13 12
5 7 8 10 12 14 15 15 15 15 13 11 10 10 10 11 11 10 10 10 10 12 17 20 21 25 30 33 32 30 29 30 31 32 31 32 31 25 21 22 20 21 20 16 12 12 13 13 12 12 13 15 15 16 16 15 15 14 14 15 13 13
4 5 6 8 9 12 14 15 16 18 18 15 12 11 11 11 11 11 11 11 11 11 13 18 21 23 26 31 34 34 34 33 32 33 34 34 34 31 28 26 23 21 22 19 14 12 13 12 12 12 12 14 15 16 16 16 16 16 15 15 14 14
6 6 6 7 8 10 12 13 15 17 21 20 16 12 11 11 11 10 10 11 12 13 13 15 19 22 24 27 29 31 32 35 35 33 32 33 34 33 32 30 29 25 23 23 18 13 13 13 12 12 12 13 14 15 16 16 17 16 15 15 16 16
7 6 6 7 7 8 10 12 15 17 20 22 19 14 11 11 11 11 9 10 11 12 14 15 16 18 21 24 27 27 28 31 34 35 33 33 32 32 33 32 31 29 25 26 22 15 15 15 13 13 14 14 14 14 15 17 17 16 17 17 18 17
8 7 7 6 7 8 10 12 14 17 20 22 20 15 12 11 12 12 11 10 11 12 13 14 15 16 17 19 22 25 27 28 29 32 34 34 32 32 34 33 31 31 29 27 24 17 17 18 16 15 15 14 14 15 16 18 18 18 19 20 19 18
10 8 8 7 6 8 10 11 14 16 19 21 20 15 12 12 12 12 13 11 10 11 13 13 13 14 15 15 17 19 22 24 26 28 31 33 32 29 32 34 33 32 30 29 26 20 20 22 18 15 15 14 14 15 16 19 20 21 22 21 20 18
11 10 9 9 8 8 10 12 15 17 19 22 22 16 11 11 11 11 11 8 7 9 11 11 10 9 10 11 13 15 14 15 19 23 27 31 32 29 28 31 32 33 32 33 32 23 22 24 21 17 16 15 15 15 15 17 20 22 23 22 22 19
13 12 11 10 9 9 10 12 15 18 20 22 23 18 12 10 11 10 8 6 7 10 10 10 10 8 7 7 10 13 13 12 13 16 22 27 31 31 30 31 31 32 33 37 36 27 23 25 25 22 19 16 14 15 15 14 14 16 19 21 22 21
14 14 12 10 9 9 10 11 13 15 17 20 21 18 14 12 11 10 9 9 9 10 10 10 11 10 8 8 9 12 14 14 13 13 16 21 26 29 30 31 32 32 34 37 38 33 27 25 26 25 23 20 15 13 12 12 12 12 14 17 19 20
16 16 14 11 10 10 10 10 12 13 14 17 19 18 16 14 12 10 10 12 11 10 10 9 10 11 11 11 11 11 13 14 16 16 15 16 22 26 26 27 29 33 35 36 39 38 32 27 26 27 26 24 19 15 11 11 13 12 11 14 16 19
18 18 16 14 12 11 11 10 10 11 12 14 16 18 18 16 14 12 10 11 12 12 11 9 9 10 11 11 10 10 11 12 15 18 17 16 18 23 27 28 28 31 34 36 39 39 36 33 29 27 27 26 23 20 16 13 13 12 12 13 14 16
20 19 19 16 13 12 12 10 10 10 11 12 13 16 17 17 17 15 12 11 11 12 12 11 10 9 10 10 9 9 11 11 12 15 18 21 20 20 24 28 29 29 31 35 38 39 40 40 34 29 28 29 28 25 22 19 17 15 15 16 15 15
22 21 20 17 15 14 13 11 10 10 10 10 10 12 15 17 17 17 16 14 12 11 12 12 12 12 11 10 10 10 10 11 11 12 16 22 24 24 25 29 30 29 30 32 36 39 41 41 39 36 33 32 31 28 25 24 22 21 19 19 19 16
23 23 21 19 17 15 14 12 11 10 10 10 9 9 11 14 16 17 17 16 15 13 12 12 14 14 13 13 12 11 10 11 11 12 15 19 22 25 29 30 29 30 32 33 35 38 40 41 43 44 40 35 33 30 26 26 24 23 22 22 20 17
23 23 22 21 19 17 16 14 12 12 11 10 9 8 9 11 14 16 17 17 17 16 15 14 13 13 14 14 14 13 12 11 11 11 13 16 20 24 28 30 28 28 31 35 37 38 39 41 44 46 43 38 37 33 29 27 25 23 23 22 21 19
24 23 23 22 20 18 18 16 15 14 13 12 11 9 9 10 11 14 16 17 18 19 19 18 16 16 17 16 16 16 14 13 12 11 11 13 18 23 27 30 30 29 29 32 35 36 38 41 42 42 41 41 41 39 35 33 29 25 24 23 22 21
22 23 23 22 21 19 19 18 17 16 15 14 12 11 10 11 11 12 14 16 18 20 21 22 22 21 20 19 18 18 18 17 15 14 14 14 15 20 25 30 32 32 31 31 32 34 36 38 39 39 41 42 42 41 41 41 35 30 28 27 26 23
21 22 22 21 22 20 19 19 18 17 16 14 13 12 12 12 12 13 14 15 18 20 22 24 25 26 25 23 21 20 20 20 19 19 18 16 15 17 20 25 31 35 35 33 32 33 35 37 38 39 43 45 45 42 43 45 41 36 32 29 27 25
19 20 21 22 23 21 20 19 18 17 16 14 14 13 13 14 14 15 15 17 18 20 22 24 26 29 29 27 25 24 23 22 22 21 20 18 16 16 16 19 24 30 37 37 35 34 35 36 37 38 41 45 48 47 45 45 44 42 37 31 29 29
17 19 20 22 23 22 21 19 18 17 16 15 14 15 15 17 17 18 18 19 21 22 23 25 27 29 30 30 28 26 25 25 24 23 22 20 19 18 16 17 19 22 29 35 38 37 35 35 38 40 41 42 46 49 48 45 44 44 41 36 34 34
Wind_Direction
28 25 42 57 82 145 168 173 172 168 168 169 163 161 164 166 169 177 181 177 178 178 177 180 180 185 192 190 183 181 180 172 176 176 163 158 143 129 125 124 141 151 152 152 153 159 162 163 178 195 193 202 204 181 170 189 193 181 189 197 188 197
44 34 30 51 69 132 166 174 174 171 169 172 171 165 169 172 171 181 183 176 183 180 176 187 188 191 194 188 187 189 186 176 176 180 169 164 155 139 130 116 116 130 140 142 136 137 145 149 156 163 170 190 186 169 200 198 182 189 198 189 190 196
45 57 45 55 70 122 171 179 175 172 169 173 173 166 175 183 178 182 187 179 187 184 179 195 196 192 195 192 192 192 191 183 177 179 175 171 169 157 145 132 119 124 137 138 129 138 155 168 168 155 160 173 168 178 212 196 173 190 199 194 199 195
22 46 66 69 68 117 179 184 177 175 174 177 177 172 178 191 188 187 193 189 192 192 186 198 202 194 198 197 192 188 188 187 181 179 178 177 181 178 166 158 150 148 152 149 153 168 170 180 194 177 170 171 176 198 205 187 176 189 200 202 203 195
343 3 31 81 60 70 191 190 183 182 181 180 178 176 181 191 194 194 200 199 197 199 193 197 205 201 202 198 190 186 185 187 184 179 180 182 188 191 182 182 181 174 175 176 182 188 183 187 196 194 190 185 192 204 197 188 186 189 205 209 206 197
301 295 336 40 56 347 199 194 192 190 187 183 180 181 185 192 199 198 200 202 203 206 201 200 208 204 200 204 198 189 186 186 185 182 183 187 191 193 185 192 195 186 188 190 193 198 197 196 197 199 200 199 203 202 192 194 199 195 205 215 209 199
300 278 268 61 107 308 224 200 198 193 189 187 185 186 190 195 201 200 200 204 205 210 210 206 209 204 196 202 194 186 185 185 188 189 189 190 195 196 188 195 197 192 198 199 202 209 213 212 207 206 208 210 209 204 196 197 206 203 201 215 214 203
320 287 244 199 176 258 278 237 211 199 196 193 189 190 193 198 204 203 203 206 205 210 217 213 212 207 195 193 185 182 185 189 193 195 196 195 199 200 194 198 199 199 203 204 209 212 220 225 221 215 214 216 211 209 203 197 208 208 200 215 221 211
20 325 245 206 186 216 266 274 252 217 205 200 197 196 193 197 205 206 207 209 209 211 218 219 219 218 207 197 191 186 187 195 198 200 204 201 201 205 202 203 202 204 208 209 215 217 220 223 226 222 217 218 213 214 209 202 211 206 203 210 221 229
50 64 118 185 192 206 235 261 270 259 231 211 207 206 202 200 203 206 209 212 212 214 219 222 224 227 219 204 198 198 196 199 202 206 209 205 206 208 208 211 210 209 213 216 219 226 228 220 226 226 221 221 215 215 213 209 214 206 210 209 210 243
73 85 102 120 178 205 222 242 257 267 268 257 226 221 218 211 206 206 209 213 214 215 220 224 226 227 224 214 210 216 213 207 207 212 211 205 211 212 210 212 213 214 217 222 223 230 233 222 225 226 222 222 217 215 213 212 217 210 214 215 212 242
85 91 98 107 131 201 221 236 251 264 270 271 263 250 251 249 230 215 211 214 217 218 219 223 227 226 228 229 225 222 221 218 214 214 212 210 214 217 215 214 218 222 220 220 222 227 229 224 225 224 221 221 220 217 211 212 216 214 215 216 218 228
81 81 79 80 81 59 255 252 254 262 270 274 272 267 264 264 264 248 226 221 222 223 222 221 226 228 227 231 232 228 225 223 219 217 218 217 216 217 220 222 226 231 230 225 223 226 226 225 225 222 220 217 219 219 213 215 216 216 216 214 219 222
75 71 65 60 54 42 12 325 294 281 280 281 279 277 274 267 264 260 248 239 233 231 229 223 223 228 228 228 232 233 227 221 218 219 222 221 219 218 220 227 231 231 234 232 228 232 231 229 226 221 219 214 215 217 213 216 217 218 220 215 217 222
68 63 59 55 50 45 37 20 358 336 313 301 290 286 283 280 275 263 252 247 241 237 237 232 226 226 228 227 230 234 230 224 218 218 224 227 225 222 221 227 231 226 226 231 228 233 231 229 226 220 218 214 211 214 213 215 216 219 223 222 220 223
64 57 53 49 46 43 39 30 16 1 348 337 315 298 290 287 287 277 261 249 241 237 237 238 233 229 227 226 229 233 235 233 228 221 224 229 227 228 229 232 233 227 221 225 228 231 230 229 228 223 218 214 211 212 212 215 218 220 223 224 224 227
60 51 45 39 36 33 31 30 25 11 353 343 334 317 301 293 287 278 271 259 246 238 235 237 237 234 231 228 227 231 235 235 233 228 227 232 232 232 235 235 236 235 231 227 225 231 235 233 233 227 218 215 213 213 213 216 220 220 221 225 225 227
32 29 27 23 23 19 17 18 20 17 4 347 334 326 314 302 292 280 272 263 255 247 241 236 235 236 236 233 229 228 232 233 234 234 233 236 236 234 234 235 234 237 237 231 222 229 238 237 233 224 217 217 215 215 217 217 220 222 222 226 227 227
311 337 349 354 2 6 6 5 7 8 6 359 339 322 314 309 299 286 276 269 261 254 250 240 236 237 239 239 236 232 232 232 233 235 236 237 238 236 235 234 234 236 239 235 222 221 237 238 228 218 214 218 217 217 221 220 220 223 223 225 228 230
285 306 319 332 347 357 357 352 354 357 359 357 346 325 308 305 303 292 277 272 267 259 255 249 243 241 241 243 243 240 237 235 233 232 233 234 235 237 237 236 235 235 238 239 230 221 233 236 224 214 212 215 217 220 224 225 224 224 225 227 230 231
275 296 312 327 341 345 344 344 348 351 353 350 343 331 312 299 298 295 280 268 265 261 257 254 251 248 245 245 245 247 245 241 238 235 234 234 234 236 238 238 237 235 235 240 238 224 226 232 219 209 209 212 217 219 222 227 228 228 230 232 231 230
267 283 298 312 328 332 332 342 347 348 350 347 340 328 312 298 288 288 286 270 258 256 256 255 254 252 251 250 248 249 250 248 245 241 238 237 234 232 235 234 231 233 235 237 236 221 220 226 216 208 206 208 216 220 224 228 230 231 232 234 232 228
261 274 287 296 314 324 324 333 340 344 348 346 340 327 303 294 289 283 284 278 260 250 248 249 253 252 251 253 251 250 251 251 250 246 241 236 230 228 234 233 228 231 235 235 233 222 219 222 218 212 206 205 212 217 224 228 229 231 229 230 231 228
258 268 279 287 297 308 315 325 333 340 346 347 346 339 316 301 297 288 287 291 285 266 251 246 250 255 254 254 254 252 249 252 252 250 245 239 233 230 234 236 233 234 235 236 235 225 217 221 220 214 211 212 211 212 223 226 226 233 231 227 228 228
257 265 273 279 287 298 313 329 338 344 349 351 351 348 339 319 303 298 300 303 301 288 271 254 248 251 259 258 255 254 251 250 250 252 249 245 240 237 236 238 242 244 241 238 236 223 213 222 222 215 217 220 212 214 228 225 221 230 231 227 228 228
257 262 269 272 277 289 305 323 336 345 350 353 354 351 344 327 308 304 309 305 299 292 283 272 258 254 258 257 253 254 254 252 250 250 249 246 243 239 238 241 246 250 245 239 235 226 216 220 223 220 222 225 224 228 233 223 218 226 226 227 230 230
256 261 266 267 269 280 295 312 326 338 347 352 354 352 346 338 323 308 307 309 308 300 290 283 271 264 262 261 259 257 255 252 250 249 246 243 241 236 232 235 240 244 243 238 234 228 218 215 221 223 224 227 232 239 239 226 222 226 226 227 230 229
254 259 262 263 265 271 284 300 317 331 343 350 354 352 347 345 338 323 313 310 310 309 304 295 281 273 269 269 268 265 262 255 250 248 245 241 239 234 228 228 232 236 238 238 236 233 225 217 217 222 226 226 231 236 240 240 233 231 236 236 232 229
254 257 258 260 260 264 274 288 304 321 336 345 351 353 348 344 341 337 333 324 313 311 309 302 291 279 272 272 272 272 268 263 256 250 245 240 238 235 229 229 232 234 235 237 238 237 232 225 220 225 229 227 228 235 240 242 240 239 242 243 241 231
255 255 256 256 255 258 267 278 291 306 321 335 344 349 348 345 343 342 342 339 329 317 309 304 298 286 274 269 267 270 269 266 262 255 246 241 240 239 231 228 232 236 237 239 239 237 235 233 230 229 230 228 228 232 236 239 238 239 240 241 246 240
256 256 256 256 255 256 263 271 280 292 304 317 330 340 343 344 345 344 346 346 342 335 323 312 303 294 284 273 264 262 265 265 264 259 251 244 242 241 235 230 232 236 237 238 240 239 237 236 234 231 229 230 232 233 235 237 236 235 237 237 240 240
258 257 256 256 255 255 260 268 275 284 294 302 313 325 332 335 338 340 343 346 346 344 339 328 315 304 298 288 274 264 259 258 262 264 259 250 244 242 239 234 233 236 238 238 239 242 241 238 236 234 230 230 235 236 237 239 239 236 236 236 235 234
257 257 255 253 254 253 257 265 272 280 288 294 301 309 317 325 329 332 336 339 340 341 340 335 326 316 310 303 292 281 271 261 255 255 261 259 248 243 241 238 234 235 239 240 239 240 242 241 239 235 232 233 234 235 237 240 238 236 235 234 232 232
255 254 253 249 249 250 254 262 268 276 283 288 295 301 308 316 321 326 329 332 334 334 334 334 330 324 316 307 301 293 287 278 265 256 255 261 256 246 242 240 237 236 237 239 240 239 240 240 238 235 233 235 234 232 236 239 237 235 234 232 231 230
254 252 251 244 245 248 252 259 265 272 279 283 290 298 304 310 314 318 322 326 329 329 329 329 326 323 318 310 302 295 291 286 278 268 255 254 259 254 247 243 239 237 236 238 239 240 240 238 237 236 232 233 235 233 235 238 238 237 234 231 231 229
253 249 247 239 241 246 250 257 263 269 276 280 286 295 301 306 309 313 316 319 323 324 324 323 320 318 315 310 303 295 292 287 283 276 261 251 252 254 251 248 245 240 237 238 238 239 241 238 235 237 235 234 234 233 232 235 238 238 234 231 231 230
252 245 243 236 238 244 248 255 261 267 274 278 285 294 299 303 306 309 311 313 316 317 317 316 314 311 308 304 300 295 293 289 284 278 268 257 251 250 251 249 248 245 241 239 238 238 240 241 237 236 236 234 232 231 230 232 236 237 235 231 230 231